TimeCST,TemperatureF,Dew PointF,Humidity,Sea Level PressureIn,VisibilityMPH,Wind Direction,Wind SpeedMPH,Gust SpeedMPH,PrecipitationIn,Events,Conditions,WindDirDegrees,DateUTC
12:15 AM,21.7,19.9,93,29.86,10.0,West,6.9,-,N/A,,Overcast,260,2013-02-23 06:15:00
12:35 AM,21.9,19.9,92,29.86,10.0,West,4.6,-,N/A,,Overcast,260,2013-02-23 06:35:00
12:56 AM,21.9,19.9,92,29.86,10.0,West,5.8,-,N/A,,Overcast,270,2013-02-23 06:56:00
1:15 AM,21.6,19.6,92,29.85,10.0,West,6.9,-,N/A,Snow,Light Snow,270,2013-02-23 07:15:00
1:35 AM,21.2,19.4,93,29.85,7.0,West,8.1,-,N/A,Snow,Light Snow,270,2013-02-23 07:35:00
1:56 AM,21.0,19.2,93,29.84,10.0,West,5.8,-,N/A,,Overcast,280,2013-02-23 07:56:00
2:15 AM,20.5,18.7,93,29.84,10.0,West,5.8,-,N/A,,Overcast,280,2013-02-23 08:15:00
2:36 AM,19.4,18.0,94,29.84,7.0,WSW,3.5,-,N/A,,Overcast,250,2013-02-23 08:36:00
2:55 AM,19.8,18.1,93,29.84,10.0,West,6.9,-,N/A,,Overcast,270,2013-02-23 08:55:00
3:16 AM,19.4,17.6,93,29.84,10.0,West,8.1,-,N/A,,Overcast,260,2013-02-23 09:16:00
3:35 AM,19.2,17.4,93,29.83,10.0,West,8.1,-,N/A,,Overcast,270,2013-02-23 09:35:00
3:55 AM,19.4,17.6,93,29.84,7.0,West,6.9,-,N/A,,Overcast,270,2013-02-23 09:55:00
4:15 AM,19.4,17.6,93,29.84,7.0,West,6.9,-,N/A,,Overcast,280,2013-02-23 10:15:00
4:36 AM,19.6,18.3,95,29.84,5.0,West,5.8,-,N/A,Snow,Light Snow,270,2013-02-23 10:36:00
4:56 AM,20.1,19.0,96,29.84,5.0,WNW,8.1,-,N/A,,Overcast,290,2013-02-23 10:56:00
5:16 AM,20.1,19.2,96,29.84,5.0,West,6.9,-,N/A,,Overcast,280,2013-02-23 11:16:00
5:35 AM,20.3,19.4,96,29.84,5.0,West,8.1,-,N/A,,Overcast,270,2013-02-23 11:35:00
5:55 AM,20.7,20.1,98,29.84,5.0,West,6.9,-,N/A,,Overcast,280,2013-02-23 11:55:00
6:16 AM,20.8,20.3,98,29.84,5.0,West,8.1,-,N/A,,Overcast,280,2013-02-23 12:16:00
6:35 AM,21.0,20.7,99,29.85,5.0,West,8.1,-,N/A,,Overcast,280,2013-02-23 12:35:00
6:55 AM,21.0,20.3,97,29.85,5.0,West,8.1,-,N/A,,Overcast,280,2013-02-23 12:55:00
7:16 AM,21.2,20.7,98,29.85,5.0,West,8.1,-,N/A,,Overcast,280,2013-02-23 13:16:00
7:35 AM,21.2,20.7,98,29.85,4.0,WNW,5.8,-,N/A,,Overcast,290,2013-02-23 13:35:00
7:55 AM,21.2,20.8,99,29.85,4.0,WNW,5.8,-,N/A,,Overcast,290,2013-02-23 13:55:00
8:16 AM,21.2,20.3,96,29.85,4.0,WNW,6.9,-,N/A,Snow,Light Snow,300,2013-02-23 14:16:00
8:55 AM,21.9,20.5,94,29.85,5.0,NNW,6.9,-,N/A,,Overcast,330,2013-02-23 14:55:00
9:15 AM,22.8,21.0,93,29.85,5.0,North,5.8,-,N/A,,Overcast,360,2013-02-23 15:15:00
9:35 AM,23.9,21.2,89,29.85,7.0,North,3.5,-,N/A,,Mostly Cloudy,360,2013-02-23 15:35:00
9:55 AM,24.6,21.2,87,29.85,7.0,NW,3.5,-,N/A,,Mostly Cloudy,320,2013-02-23 15:55:00
10:15 AM,25.5,21.2,84,29.86,10.0,NW,3.5,-,N/A,,Overcast,320,2013-02-23 16:15:00
10:35 AM,26.4,21.6,82,29.87,10.0,NW,4.6,-,N/A,,Scattered Clouds,320,2013-02-23 16:35:00
10:56 AM,27.1,21.7,80,29.86,10.0,West,3.5,-,N/A,,Clear,280,2013-02-23 16:56:00
11:15 AM,27.5,21.7,79,29.86,10.0,Calm,Calm,-,N/A,,Clear,0,2013-02-23 17:15:00
11:36 AM,28.4,21.9,77,29.86,10.0,WNW,4.6,-,N/A,,Clear,290,2013-02-23 17:36:00
11:55 AM,28.9,21.9,75,29.86,10.0,WNW,4.6,-,N/A,,Clear,300,2013-02-23 17:55:00
12:15 PM,29.7,22.1,73,29.86,10.0,Calm,Calm,-,N/A,,Clear,0,2013-02-23 18:15:00
12:36 PM,30.2,22.5,73,29.86,10.0,WSW,3.5,-,N/A,,Scattered Clouds,240,2013-02-23 18:36:00
12:56 PM,30.2,22.1,72,29.85,10.0,Calm,Calm,-,N/A,,Scattered Clouds,0,2013-02-23 18:56:00
1:15 PM,30.2,22.3,72,29.85,10.0,SW,4.6,-,N/A,,Scattered Clouds,230,2013-02-23 19:15:00
1:35 PM,30.0,21.9,72,29.85,10.0,SSW,6.9,-,N/A,,Scattered Clouds,210,2013-02-23 19:35:00
1:56 PM,30.2,21.7,71,29.85,10.0,SW,6.9,-,N/A,,Scattered Clouds,220,2013-02-23 19:56:00
2:15 PM,30.0,21.9,72,29.85,10.0,WSW,4.6,-,N/A,,Clear,240,2013-02-23 20:15:00
2:35 PM,30.2,21.6,70,29.85,10.0,SSW,3.5,-,N/A,,Clear,210,2013-02-23 20:35:00
2:56 PM,29.8,21.4,71,29.85,10.0,SW,4.6,-,N/A,,Clear,220,2013-02-23 20:56:00
3:15 PM,29.8,21.6,71,29.85,10.0,SW,5.8,-,N/A,,Clear,220,2013-02-23 21:15:00
3:36 PM,29.7,21.6,72,29.85,10.0,SW,8.1,-,N/A,,Clear,220,2013-02-23 21:36:00
3:56 PM,28.9,21.6,74,29.85,10.0,SW,6.9,-,N/A,,Clear,220,2013-02-23 21:56:00
4:15 PM,28.9,21.6,74,29.85,10.0,SW,6.9,-,N/A,,Clear,220,2013-02-23 22:15:00
4:35 PM,27.9,21.2,76,29.85,10.0,SW,6.9,-,N/A,,Clear,230,2013-02-23 22:35:00
4:55 PM,26.6,20.1,77,29.86,10.0,SSW,6.9,-,N/A,,Clear,210,2013-02-23 22:55:00
5:16 PM,25.7,19.2,76,29.86,10.0,SSW,5.8,-,N/A,,Clear,210,2013-02-23 23:16:00
5:36 PM,24.6,18.7,78,29.87,10.0,SSW,4.6,-,N/A,,Clear,210,2013-02-23 23:36:00
5:55 PM,22.8,18.1,82,29.87,10.0,SSW,3.5,-,N/A,,Clear,200,2013-02-23 23:55:00
6:16 PM,21.4,17.2,84,29.88,10.0,SW,3.5,-,N/A,,Clear,220,2013-02-24 00:16:00
6:35 PM,19.2,16.0,87,29.88,10.0,Calm,Calm,-,N/A,,Clear,0,2013-02-24 00:35:00
6:56 PM,19.0,16.3,89,29.89,10.0,Calm,Calm,-,N/A,,Clear,0,2013-02-24 00:56:00
7:15 PM,18.3,15.6,89,29.89,10.0,Calm,Calm,-,N/A,,Clear,0,2013-02-24 01:15:00
7:35 PM,16.3,14.9,94,29.90,7.0,Calm,Calm,-,N/A,,Clear,0,2013-02-24 01:35:00
7:56 PM,15.4,14.2,95,29.90,7.0,Calm,Calm,-,N/A,,Clear,0,2013-02-24 01:56:00
8:15 PM,13.6,12.4,95,29.90,7.0,Calm,Calm,-,N/A,,Clear,0,2013-02-24 02:15:00
8:35 PM,11.5,10.8,97,29.90,5.0,Calm,Calm,-,N/A,,Clear,0,2013-02-24 02:35:00
8:56 PM,11.8,10.6,95,29.91,5.0,Calm,Calm,-,N/A,,Clear,0,2013-02-24 02:56:00
9:15 PM,9.5,8.1,94,29.91,4.0,Calm,Calm,-,N/A,,Clear,0,2013-02-24 03:15:00
9:36 PM,10.2,9.1,95,29.92,3.0,Calm,Calm,-,N/A,,Clear,0,2013-02-24 03:36:00
9:55 PM,8.6,7.3,95,29.92,3.0,Calm,Calm,-,N/A,,Clear,0,2013-02-24 03:55:00
10:15 PM,7.5,5.9,93,29.93,4.0,Calm,Calm,-,N/A,,Clear,0,2013-02-24 04:15:00
10:36 PM,7.5,6.1,94,29.93,5.0,Calm,Calm,-,N/A,,Clear,0,2013-02-24 04:36:00
10:56 PM,6.6,5.0,93,29.94,7.0,Calm,Calm,-,N/A,,Clear,0,2013-02-24 04:56:00
11:16 PM,7.2,5.9,95,29.95,7.0,Calm,Calm,-,N/A,,Clear,0,2013-02-24 05:16:00
11:35 PM,7.0,5.0,92,29.94,7.0,Calm,Calm,-,N/A,,Clear,0,2013-02-24 05:35:00
11:55 PM,4.8,2.8,92,29.94,7.0,Calm,Calm,-,N/A,,Clear,0,2013-02-24 05:55:00